EW1556 Weather Reports


Display with metric or nautical units.
time (UTC)temp
F
wind
direction
speed
MPH
gust
MPH
rain 1hr
in
rain 24hr
in
rain mn
in
humidity
%
barometer
mb
20260505124521 0 0.0 0.0 0.00 0.17 0.00 1009.1
20260505123016 0 0.0 0.0 0.00 0.17 0.00 1008.9
20260505121515 -90 266 2.0 3.0 0.00 0.17 0.00 80 1008.8
20260505120007 55 275 2.0 5.0 0.00 0.17 0.00 78 1008.7
20260505114508 56 273 4.0 7.0 0.00 0.17 0.00 77 1008.6
20260505113015 56 261 4.0 7.0 0.00 0.17 0.00 77 1008.5
20260505111504 57 283 4.0 8.0 0.00 0.17 0.00 77 1008.5
20260505101558 56 281 2.0 4.0 0.00 0.17 0.00 80 1008.4
20260505100059 57 283 3.0 6.0 0.00 0.17 0.00 79 1008.3
20260505094555 57 288 4.0 6.0 0.00 0.17 0.00 78 1008.2
20260505093051 57 267 3.0 6.0 0.00 0.17 0.00 78 1008.2
20260505091550 57 290 3.0 6.0 0.00 0.17 0.00 79 1008.1
20260505090101 57 253 3.0 6.0 0.00 0.17 0.00 79 1008.1
20260505084551 57 278 2.0 5.0 0.00 0.17 0.00 78 1008.1
20260505083054 57 275 1.0 3.0 0.00 0.17 0.00 77 1008.1
20260505081545 58 275 2.0 5.0 0.00 0.17 0.00 76 1008.0
20260505080041 59 282 2.0 5.0 0.00 0.17 0.00 74 1007.9
20260505074536 59 281 4.0 9.0 0.00 0.17 0.00 73 1007.7
20260505073039 59 273 4.0 7.0 0.00 0.17 0.00 73 1007.7
20260505071532 60 271 5.0 9.0 0.00 0.17 0.00 71 1007.7
20260505070029 60 259 5.0 9.0 0.00 0.17 0.17 70 1007.5
20260505064528 60 288 5.0 8.0 0.00 0.17 0.17 70 1007.5
20260505063029 60 275 6.0 10.0 0.00 0.17 0.17 69 1007.4
20260505061530 60 286 4.0 8.0 0.00 0.17 0.17 67 1007.5
20260505060033 61 284 5.0 10.0 0.00 0.17 0.17 67 1007.4
20260505054535 61 271 3.0 10.0 0.00 0.17 0.17 64 1007.3
20260505053027 61 274 6.0 10.0 0.00 0.17 0.17 62 1007.1
20260505051524 62 276 6.0 12.0 0.00 0.17 0.17 61 1007.1
20260505041521 64 276 4.0 8.0 0.00 0.17 0.17 50 1006.7
20260505040021 64 274 4.0 10.0 0.00 0.17 0.17 48 1006.4
20260505034520 65 270 4.0 11.0 0.00 0.17 0.17 46 1006.2
20260505033021 66 290 8.0 13.0 0.00 0.17 0.17 43 1005.9
20260505031519 68 269 7.0 16.0 0.00 0.17 0.17 41 1005.7
20260505030025 69 283 9.0 15.0 0.00 0.23 0.17 39 1005.6
20260505024516 71 287 8.0 13.0 0.00 0.23 0.17 37 1005.5
20260505023016 72 299 9.0 16.0 0.00 0.23 0.17 34 1005.5
20260505021515 74 295 8.0 16.0 0.00 0.23 0.17 33 1005.2
20260505020013 75 294 11.0 16.0 0.00 0.24 0.17 31 1005.2
20260505014515 76 285 10.0 17.0 0.17 0.24 0.17 29 1005.3
20260505013012 77 276 8.0 17.0 0.17 0.24 0.17 30 1005.2
20260505011514 78 275 9.0 18.0 0.17 0.24 0.17 29 1005.2
20260505010010 79 290 10.0 16.0 0.17 0.47 0.17 27 1005.1
20260505004523 80 301 10.0 14.0 0.00 0.30 0.00 25 1005.2
20260505003008 81 308 5.0 13.0 0.00 0.30 0.00 23 1005.2
20260505001507 81 321 5.0 11.0 0.00 0.30 0.00 24 1005.1
20260505000011 81 341 4.0 11.0 0.00 0.34 0.00 23 1005.2
20260504234634 81 336 6.0 13.0 0.00 0.34 0.00 25 1005.2
20260504233005 82 17 8.0 14.0 0.00 0.34 0.00 24 1005.4
20260504231513 82 40 5.0 18.0 0.00 0.34 0.00 26 1005.4
20260504230002 82 39 9.0 16.0 0.00 0.36 0.00 26 1005.5
20260504224608 81 44 7.0 16.0 0.00 0.36 0.00 26 1005.7
20260504223059 82 74 7.0 19.0 0.00 0.36 0.00 26 1005.8
20260504221605 82 65 11.0 15.0 0.00 0.36 0.00 26 1006.0
20260504220057 81 75 8.0 19.0 0.00 0.36 0.00 27 1006.0
20260504214601 82 27 12.0 17.0 0.00 0.36 0.00 26 1006.2
20260504213103 82 27 11.0 18.0 0.00 0.36 0.00 25 1006.2
20260504211552 82 25 8.0 17.0 0.00 0.36 0.00 26 1006.4
20260504210057 81 37 9.0 15.0 0.00 0.36 0.00 26 1006.5
20260504204627 81 30 13.0 20.0 0.00 0.36 0.00 26 1006.6
20260504203050 81 46 8.0 20.0 0.00 0.36 0.00 29 1006.7
20260504201546 80 48 11.0 20.0 0.00 0.36 0.00 28 1006.8
20260504200053 80 79 4.0 15.0 0.00 0.36 0.00 29 1006.8
20260504194550 79 39 5.0 15.0 0.00 0.36 0.00 33 1007.0
20260504193045 79 64 6.0 15.0 0.00 0.36 0.00 32 1007.1
20260504191544 80 84 6.0 9.0 0.00 0.36 0.00 28 1007.0
20260504190050 80 4 5.0 10.0 0.00 0.36 0.00 29 1007.2
20260504184539 79 80 2.0 7.0 0.00 0.36 0.00 32 1007.2
20260504183035 78 340 1.0 8.0 0.00 0.36 0.00 33 1007.4
20260504181534 78 288 0.0 4.0 0.00 0.36 0.00 34 1007.5
20260504180033 78 356 1.0 4.0 0.00 0.36 0.00 31 1007.6
20260504174529 76 155 1.0 3.0 0.00 0.36 0.00 34 1007.7
20260504173026 76 84 1.0 5.0 0.00 0.36 0.00 35 1007.7
20260504171537 75 75 0.0 3.0 0.00 0.36 0.00 40 1007.8
20260504150104 62 139 0.0 1.0 0.00 0.36 0.00 54 1008.3